Other Public Products
Issued by NWS Charleston, SC

Current Version | Previous Version | Graphics & Text | Print | Product List | Glossary On
Versions: 1 2 3 4 5 6 7 8 9 10 11 12 13 14 15 16 17 18 19 20 21 22 23 24 25 26 27 28 29 30 31 32 33 34 35 36 37 38 39 40 41 42 43 44 45 46 47 48 49 50
258
FPUS82 KCHS 150227
OPUCHS

TEST...KCHS/KSAV Gateway Observations...TEST
National Weather Service Charleston SC
900 PM EST THU DEC 14 2017

NOTE: "fair" indicates few or no clouds below 12,000 feet with no
significant weather and/or obstructions to visibility.

SCZ050-WAZ558-NCZ071-TXZ119-213-PAZ071-DCZ001-FLZ074-172-MI076-
NYZ176-178-MAZ016-IL014-TNZ027-NJZ106-GAZ044-MD014-150300-

...Gateway Observations for Charleston International...

CITY           SKY/WX    TMP DP  RH WIND       PRES   REMARKS
Chas Airport   CLOUDY    46  42  86 SW7       29.99S
Seattle        CLOUDY    42  36  79 NW5       30.27S
Charlotte      PTCLDY    50  29  44 SE7       29.94R
Dallas DFW     PTCLDY    49  28  44 N12       30.15R
Dallas Love    PTCLDY    51  27  39 N8        30.16R
Philladelphia  MOCLDY    29   9  43 NW6       30.09R WCI  23
Wash National  CLOUDY    34  15  46 N14       30.10R WCI  25
Baltimore      MOCLDY    31  14  49 NW8       30.08R WCI  23
Miami          PTCLDY    64  52  64 W3        30.11R
Detroit        PTCLDY    15   4  61 S6        30.08S WCI   6
Newark         MOCLDY    25   4  40 NW10      30.08R WCI  15
Laguardia      PTCLDY    27   9  46 NW16      30.07R WCI  15
J F K          MOCLDY    25   7  46 NW15      30.08R WCI  13
Boston Logan   CLEAR     21   1  41 W15G26    29.95R WCI   8
Ft. Lauderdale CLEAR     63  49  60 SW7       30.10R
Chicago O`Hare PTCLDY    21  11  65 SW3       30.06F
Chicago Midway PTCLDY    22  11  62 W5        30.08S WCI  16
Houston Bush   CLOUDY    56  46  69 N6        30.05R
Houston Hobby  CLOUDY    58  45  62 N10       30.03R
Nashville      CLOUDY    34  22  61 NW6       30.09R WCI  29
Atlanta        CLOUDY    48  37  65 W3        29.99R

$$

GAZ044-118-TXZ119-213-NCZ071-DCZ001-MDZ014-506-PAZ021-071-NJZ106-
NYZ176-178-MAZ106-OHZ011-021-055-MIZ076-KYZ091-ILZ014-INZ047-
MNZ060-ONZ431-150300-

...Gateway Observations for Savannah International...

CITY           SKY/WX    TMP DP  RH WIND       PRES   REMARKS
Savannah Arpt  CLOUDY    53  39  59 SW3       30.02R
Atlanta        CLOUDY    48  37  65 W3        29.99R
Charlotte      PTCLDY    50  29  44 SE7       29.94R
Dallas DFW     PTCLDY    49  28  44 N12       30.15R
Houston Bush   CLOUDY    56  46  69 N6        30.05R
Wash National  CLOUDY    34  15  46 N14       30.10R WCI  25
Wash Dulles    CLOUDY    31  15  52 NW12      30.08R WCI  22
Baltimore      MOCLDY    31  14  49 NW8       30.08R WCI  23
Philadelphia   MOCLDY    29   9  43 NW6       30.09R WCI  23
Newark         MOCLDY    25   4  40 NW10      30.08R WCI  15
Laguardia      PTCLDY    27   9  46 NW16      30.07R WCI  15
J F K          MOCLDY    25   7  46 NW15      30.08R WCI  13
Boston         CLEAR     21   1  41 W15G26    29.95R WCI   8
Pittsburg      CLOUDY    19  11  70 CALM      30.03F
Akron          CLOUDY    13   8  81 NW3       30.03F
Cleveland      MOCLDY    14  10  84 SW6       30.10S WCI   5
Cincinnati     CLOUDY    24  17  74 NE6       30.07S WCI  17
Columbus       PTCLDY    23  17  79 N5        30.07F WCI  17
Detroit        PTCLDY    15   4  61 S6        30.08S WCI   6
Chicago O`Hare PTCLDY    21  11  65 SW3       30.06F
Minneapolis    CLOUDY    23  17  78 NW10      30.02F WCI  12
Indianapolis   CLOUDY    25  14  63 S5        30.08R WCI  19
Toronto Canada PTCLDY    12   7  79 SW8       30.01R WCI   1

$$




USA.gov is the U.S. government's official web portal to all federal, state and local government web resources and services.